Regional Weather Roundup
Issued by NWS State College, PA

Home | Current Version | Previous Version | Graphics & Text | Print | Product List | Glossary Off
Versions: 1 2 3 4 5 6 7 8 9 10 11 12 13 14 15 16 17 18 19 20 21 22 23 24 25 26 27 28 29 30 31 32 33 34 35 36 37 38 39 40 41 42 43 44 45 46 47 48 49 50

000
ASUS41 KCTP 221410
RWRCTP

REGIONAL WEATHER ROUNDUP
NATIONAL WEATHER SERVICE STATE COLLEGE PA
900 AM EST SUN JAN 22 2017

Note: "fair" indicates few or no clouds below 12,000 feet with no
significant weather and/or obstructions to visibility.

* = STATION THAT DOES NOT REPORT PRECIPITATION /E.G. RAIN...SNOW...ETC/
    THUNDER OR FOG.

PAZ002>004-007>009-013>016-020>023-029>032-221500-
WESTERN PENNSYLVANIA

CITY           SKY/WX    TMP DP  RH WIND       PRES   REMARKS
ERIE           CLOUDY    48  45  89 CALM      29.66R
MEADVILLE      CLOUDY    50  47  89 CALM      29.65R
FRANKLIN*        N/A     48  46  93 CALM      29.68R
NEW CASTLE     CLOUDY    46  46 100 CALM      29.68R FOG
BEAVER COUNTY  NOT AVBL
BUTLER*        PTSUNNY   48  46  93 CALM      29.69R
PITTSBURGH INT CLOUDY    48  48 100 CALM      29.66R
PITTSBURGH     MOSUNNY   52  46  80 E5        29.65S
INDIANA*       SUNNY     43  43 100 E5        29.70R
LATROBE        PTSUNNY   41  41 100 CALM      29.67R
WASHINGTON CO* CLOUDY    43  41  93 CALM      29.66S
$$

PAZ004>006-010>012-017>019-024>028-033>037-041-042-045-046-049>053-221500-
CENTRAL PENNSYLVANIA

CITY           SKY/WX    TMP DP  RH WIND       PRES   REMARKS
BRADFORD       FOG       41  41 100 CALM      29.68R VSB 1
DUBOIS         CLOUDY    44  42  93 SE6       29.68R FOG
CLEARFIELD     FOG       39  39 100 N3        29.71R VSB<1/4
JOHNSTOWN      CLOUDY    50  46  86 NE3       29.67R
ALTOONA        FOG       41  41 100 CALM      29.70R VSB<1/4
STATE COLLEGE  FOG       39  39 100 CALM      29.71S VSB 1/8
WILLIAMSPORT   CLOUDY    41  40  96 NW3       29.73R FOG
SELINSGROVE    CLOUDY    41  41 100 CALM      29.74R FOG
FT INDIANTOWN  NOT AVBL
CAPITAL CITY   FOG       44  42  93 CALM      29.72F VSB 1/2
HARRISBURG     CLOUDY    43  43 100 NE5       29.72S FOG
YORK           FOG       43  43 100 CALM      29.72R VSB 1/4
$$

PAZ038>040-043-044-047-048-054-055-060>062-067>071-221500-
EASTERN PENNSYLVANIA

CITY           SKY/WX    TMP DP  RH WIND       PRES   REMARKS
SCRANTON       FOG       41  41 100 CALM      29.71R VSB 1/4
MOUNT POCONO   MOSUNNY   45  43  93 E6        29.69R
ALLENTOWN      FOG       42  40  92 N3        29.73R VSB 1/4
QUAKERTOWN*    CLOUDY    41  41 100 CALM      29.72S VSB<1/4
READING        FOG       41  41 100 CALM      29.73R VSB 1/8
LANCASTER      FOG       43  43 100 NE5       29.72R VSB 1/4
COATESVILLE    FOG       43  43 100 N7        29.72S VSB<1/4
POTTSTOWN      FOG       42  42 100 CALM      29.74R VSB 1/2
BLUE BELL      CLOUDY    43  43 100 CALM      29.72R VSB 1/2
DOYLESTOWN     FOG       44  44 100 N3        29.71R VSB 3/4
WILLOW GROVE   NOT AVBL
NORTH PHILA    CLOUDY    46  45  96 N6        29.73R FOG
PHILADELPHIA   CLOUDY    46  45  96 NE8       29.72R FOG
$$




USA.gov is the U.S. government's official web portal to all federal, state and local government web resources and services.